| time (UTC) | temp C | wind direction | speed KPH | gust KPH | rain 1hr cm | rain 24hr cm | rain mn cm | humidity % | barometer mb |
| 20260509202046 | 20 | 277 | 1.6 | 6.4 | 0.00 | 0.03 | 0.03 | 55 | 1009.7 |
| 20260509201541 | 20 | 284 | 3.2 | 6.4 | 0.00 | 0.03 | 0.03 | 57 | 1009.9 |
| 20260509201039 | 21 | 311 | 3.2 | 9.7 | 0.00 | 0.03 | 0.03 | 53 | 1009.9 |
| 20260509200539 | 21 | 313 | 0.0 | 1.6 | 0.00 | 0.03 | 0.03 | 53 | 1009.9 |
| 20260509200036 | 20 | 37 | 1.6 | 3.2 | 0.00 | 0.03 | 0.03 | 58 | 1010.0 |
| 20260509195532 | 20 | 10 | 0.0 | 1.6 | 0.00 | 0.03 | 0.03 | 59 | 1009.9 |
| 20260509195031 | 20 | 297 | 1.6 | 6.4 | 0.00 | 0.03 | 0.03 | 60 | 1010.2 |
| 20260509194526 | 20 | 293 | 6.4 | 6.4 | 0.00 | 0.03 | 0.03 | 59 | 1010.2 |
| 20260509194024 | 19 | 170 | 0.0 | 3.2 | 0.00 | 0.03 | 0.03 | 60 | 1010.2 |
| 20260509193524 | 20 | 66 | 1.6 | 4.8 | 0.00 | 0.03 | 0.03 | 60 | 1010.4 |
| 20260509193021 | 20 | 70 | 0.0 | 1.6 | 0.00 | 0.03 | 0.03 | 59 | 1010.3 |
| 20260509192517 | 20 | 350 | 0.0 | 4.8 | 0.00 | 0.03 | 0.03 | 59 | 1010.2 |
| 20260509192012 | 20 | 106 | 0.0 | 1.6 | 0.00 | 0.03 | 0.03 | 57 | 1010.3 |
| 20260509191507 | 20 | 121 | 0.0 | 1.6 | 0.00 | 0.03 | 0.03 | 58 | 1010.2 |
| 20260509191003 | 20 | 20 | 1.6 | 1.6 | 0.00 | 0.03 | 0.03 | 58 | 1010.3 |
| 20260509190500 | 20 | 273 | 3.2 | 3.2 | 0.00 | 0.03 | 0.03 | 56 | 1010.3 |
| 20260509185958 | 20 | 206 | 3.2 | 4.8 | 0.00 | 0.03 | 0.03 | 61 | 1010.3 |
| 20260509185455 | 20 | 108 | 3.2 | 4.8 | 0.00 | 0.03 | 0.03 | 58 | 1010.4 |
| 20260509184952 | 19 | 102 | 4.8 | 6.4 | 0.00 | 0.03 | 0.03 | 60 | 1010.3 |
| 20260509184451 | 19 | 129 | 6.4 | 12.9 | 0.00 | 0.03 | 0.03 | 60 | 1010.5 |
| 20260509183947 | 18 | 132 | 6.4 | 9.7 | 0.00 | 0.03 | 0.03 | 61 | 1010.6 |
| 20260509183446 | 19 | 131 | 3.2 | 9.7 | 0.00 | 0.03 | 0.03 | 60 | 1010.6 |
| 20260509182943 | 19 | 132 | 0.0 | 1.6 | 0.00 | 0.03 | 0.03 | 61 | 1010.4 |
| 20260509182439 | 18 | 117 | 0.0 | 1.6 | 0.00 | 0.03 | 0.03 | 57 | 1010.6 |
| 20260509181937 | 18 | 90 | 0.0 | 1.6 | 0.00 | 0.03 | 0.03 | 59 | 1010.4 |
| 20260509181435 | 18 | 89 | 1.6 | 1.6 | 0.00 | 0.03 | 0.03 | 61 | 1010.8 |
| 20260509180932 | 18 | 97 | 4.8 | 6.4 | 0.00 | 0.03 | 0.03 | 62 | 1010.9 |
| 20260509180427 | 17 | 89 | 4.8 | 6.4 | 0.00 | 0.03 | 0.03 | 65 | 1010.8 |
| 20260509175924 | 18 | 120 | 6.4 | 11.3 | 0.00 | 0.03 | 0.03 | 63 | 1010.9 |
| 20260509175421 | 18 | 75 | 1.6 | 4.8 | 0.00 | 0.03 | 0.03 | 65 | 1011.0 |
| 20260509174917 | 18 | 113 | 4.8 | 16.1 | 0.00 | 0.03 | 0.03 | 66 | 1011.1 |
| 20260509174413 | 18 | 337 | 0.0 | 3.2 | 0.00 | 0.03 | 0.03 | 68 | 1011.2 |
| 20260509173910 | 18 | 128 | 3.2 | 6.4 | 0.00 | 0.03 | 0.03 | 67 | 1011.3 |
| 20260509173409 | 17 | 169 | 1.6 | 3.2 | 0.00 | 0.03 | 0.03 | 68 | 1011.5 |
| 20260509172906 | 17 | 61 | 0.0 | 0.0 | 0.00 | 0.03 | 0.03 | 72 | 1011.4 |
| 20260509172403 | 17 | 65 | 0.0 | 0.0 | 0.00 | 0.03 | 0.03 | 71 | 1011.8 |
| 20260509171858 | 17 | 97 | 0.0 | 1.6 | 0.00 | 0.03 | 0.03 | 73 | 1011.8 |
| 20260509171354 | 17 | 106 | 0.0 | 4.8 | 0.00 | 0.03 | 0.03 | 73 | 1011.9 |
| 20260509170851 | 17 | 47 | 0.0 | 3.2 | 0.00 | 0.03 | 0.03 | 73 | 1012.0 |
| 20260509170348 | 16 | 89 | 3.2 | 3.2 | 0.00 | 0.03 | 0.03 | 75 | 1011.9 |
| 20260509165847 | 16 | 83 | 0.0 | 4.8 | 0.00 | 0.03 | 0.03 | 76 | 1012.2 |
| 20260509165342 | 16 | 98 | 3.2 | 6.4 | 0.00 | 0.03 | 0.03 | 77 | 1012.2 |
| 20260509164838 | 16 | 98 | 3.2 | 4.8 | 0.00 | 0.03 | 0.03 | 78 | 1012.3 |
| 20260509164335 | 16 | 47 | 0.0 | 1.6 | 0.00 | 0.03 | 0.03 | 78 | 1012.2 |
| 20260509163831 | 16 | 34 | 0.0 | 0.0 | 0.00 | 0.03 | 0.03 | 77 | 1012.2 |
| 20260509163328 | 16 | 70 | 0.0 | 0.0 | 0.00 | 0.03 | 0.03 | 77 | 1012.1 |
| 20260509162828 | 15 | 15 | 0.0 | 1.6 | 0.00 | 0.03 | 0.03 | 77 | 1012.3 |
| 20260509162325 | 15 | 10 | 1.6 | 3.2 | 0.00 | 0.03 | 0.03 | 77 | 1012.1 |
| 20260509161822 | 15 | 43 | 0.0 | 3.2 | 0.00 | 0.03 | 0.03 | 79 | 1012.0 |
| 20260509161319 | 15 | 315 | 1.6 | 4.8 | 0.00 | 0.03 | 0.03 | 79 | 1012.1 |
| 20260509160814 | 15 | 27 | 1.6 | 1.6 | 0.00 | 0.03 | 0.03 | 79 | 1012.2 |
| 20260509160310 | 15 | 69 | 0.0 | 0.0 | 0.00 | 0.03 | 0.03 | 76 | 1012.3 |
| 20260509155806 | 15 | 69 | 0.0 | 0.0 | 0.00 | 0.03 | 0.03 | 78 | 1012.1 |
| 20260509155306 | 15 | 308 | 0.0 | 0.0 | 0.00 | 0.03 | 0.03 | 77 | 1012.3 |
| 20260509154758 | 15 | 302 | 1.6 | 3.2 | 0.00 | 0.03 | 0.03 | 77 | 1012.4 |
| 20260509154256 | 15 | 357 | 1.6 | 1.6 | 0.00 | 0.03 | 0.03 | 78 | 1012.5 |
| 20260509153752 | 15 | 100 | 0.0 | 3.2 | 0.00 | 0.03 | 0.03 | 79 | 1012.2 |
| 20260509153248 | 15 | 100 | 1.6 | 3.2 | 0.00 | 0.03 | 0.03 | 77 | 1012.2 |
| 20260509152745 | 15 | 93 | 0.0 | 1.6 | 0.00 | 0.03 | 0.03 | 80 | 1012.3 |
| 20260509152242 | 15 | 38 | 1.6 | 3.2 | 0.00 | 0.03 | 0.03 | 79 | 1012.3 |
| 20260509151739 | 15 | 77 | 0.0 | 1.6 | 0.00 | 0.03 | 0.03 | 79 | 1012.3 |
| 20260509151235 | 15 | 88 | 0.0 | 4.8 | 0.00 | 0.03 | 0.03 | 81 | 1012.3 |
| 20260509150734 | 15 | 81 | 3.2 | 6.4 | 0.00 | 0.03 | 0.03 | 80 | 1012.0 |
| 20260509150232 | 15 | 92 | 0.0 | 3.2 | 0.00 | 0.03 | 0.03 | 81 | 1012.3 |
| 20260509145729 | 14 | 34 | 0.0 | 1.6 | 0.00 | 0.03 | 0.03 | 84 | 1012.3 |
| 20260509145228 | 14 | 49 | 0.0 | 1.6 | 0.00 | 0.03 | 0.03 | 85 | 1012.2 |
| 20260509144725 | 15 | 27 | 1.6 | 3.2 | 0.00 | 0.03 | 0.03 | 85 | 1012.3 |
| 20260509144222 | 14 | 44 | 1.6 | 1.6 | 0.00 | 0.03 | 0.03 | 86 | 1012.4 |
| 20260509143719 | 13 | 37 | 1.6 | 1.6 | 0.00 | 0.03 | 0.03 | 88 | 1012.5 |
| 20260509143217 | 13 | 4 | 0.0 | 3.2 | 0.00 | 0.03 | 0.03 | 86 | 1012.5 |
| 20260509142712 | 13 | 41 | 0.0 | 1.6 | 0.00 | 0.03 | 0.03 | 86 | 1012.6 |
| 20260509142209 | 13 | 55 | 0.0 | 0.0 | 0.00 | 0.03 | 0.03 | 89 | 1012.6 |
| 20260509141704 | 12 | 8 | 0.0 | 0.0 | 0.00 | 0.03 | 0.03 | 90 | 1012.6 |
| 20260509141202 | 12 | 11 | 0.0 | 1.6 | 0.00 | 0.03 | 0.03 | 90 | 1012.7 |
| 20260509140658 | 12 | 99 | 0.0 | 1.6 | 0.00 | 0.03 | 0.03 | 90 | 1012.6 |
| 20260509140156 | 12 | 99 | 3.2 | 3.2 | 0.00 | 0.03 | 0.03 | 91 | 1012.6 |
| 20260509135653 | 12 | 75 | 0.0 | 1.6 | 0.00 | 0.03 | 0.03 | 92 | 1012.6 |
| 20260509135151 | 11 | 18 | 0.0 | 1.6 | 0.00 | 0.03 | 0.03 | 93 | 1012.6 |
| 20260509134647 | 11 | 46 | 0.0 | 3.2 | 0.00 | 0.03 | 0.03 | 93 | 1012.2 |
| 20260509134145 | 11 | 106 | 1.6 | 3.2 | 0.00 | 0.03 | 0.03 | 93 | 1012.3 |
| 20260509133642 | 11 | 61 | 0.0 | 0.0 | 0.00 | 0.03 | 0.03 | 94 | 1012.0 |
| 20260509133139 | 11 | 27 | 0.0 | 0.0 | 0.00 | 0.03 | 0.03 | 94 | 1012.0 |
| 20260509132637 | 11 | 26 | 3.2 | 3.2 | 0.00 | 0.03 | 0.03 | 94 | 1012.1 |
| 20260509132135 | 11 | 99 | 3.2 | 4.8 | 0.00 | 0.03 | 0.03 | 94 | 1012.4 |
| 20260509131631 | 11 | 330 | 1.6 | 6.4 | 0.00 | 0.03 | 0.03 | 94 | 1012.3 |
| 20260509131128 | 11 | 326 | 4.8 | 4.8 | 0.00 | 0.03 | 0.03 | 94 | 1012.5 |
| 20260509130624 | 11 | 219 | 1.6 | 3.2 | 0.00 | 0.03 | 0.03 | 94 | 1012.5 |
| 20260509130121 | 11 | 297 | 1.6 | 3.2 | 0.00 | 0.03 | 0.03 | 94 | 1012.5 |
| 20260509125617 | 11 | 210 | 1.6 | 3.2 | 0.00 | 0.03 | 0.03 | 95 | 1012.7 |
| 20260509125114 | 11 | 296 | 0.0 | 0.0 | 0.00 | 0.03 | 0.03 | 93 | 1012.6 |
| 20260509124610 | 11 | 320 | 0.0 | 0.0 | 0.00 | 0.03 | 0.03 | 94 | 1012.4 |
| 20260509124108 | 11 | 332 | 0.0 | 0.0 | 0.00 | 0.03 | 0.03 | 94 | 1012.4 |
| 20260509123606 | 11 | 25 | 1.6 | 1.6 | 0.00 | 0.03 | 0.03 | 95 | 1012.5 |
| 20260509123102 | 11 | 30 | 0.0 | 0.0 | 0.00 | 0.03 | 0.03 | 95 | 1012.5 |
| 20260509122558 | 11 | 30 | 0.0 | 1.6 | 0.00 | 0.03 | 0.03 | 94 | 1012.3 |
| 20260509122056 | 11 | 92 | 0.0 | 3.2 | 0.00 | 0.03 | 0.03 | 94 | 1012.3 |
| 20260509121552 | 11 | 127 | 3.2 | 4.8 | 0.00 | 0.03 | 0.03 | 94 | 1012.6 |
| 20260509121049 | 10 | 108 | 0.0 | 1.6 | 0.00 | 0.03 | 0.03 | 93 | 1012.4 |
| 20260509120547 | 10 | 118 | 0.0 | 0.0 | 0.13 | 0.03 | 0.03 | 94 | 1012.4 |
| 20260509120046 | 10 | 118 | 0.0 | 1.6 | 0.13 | 0.03 | 0.03 | 94 | 1012.6 |
| 20260509115542 | 10 | 321 | 1.6 | 1.6 | 0.00 | 0.00 | 0.00 | 94 | 1012.5 |
| 20260509115040 | 10 | 330 | 3.2 | 3.2 | 0.00 | 0.00 | 0.00 | 93 | 1012.4 |
| 20260509114538 | 10 | 332 | 1.6 | 1.6 | 0.00 | 0.00 | 0.00 | 93 | 1012.6 |
| 20260509114037 | 10 | 274 | 0.0 | 0.0 | 0.00 | 0.00 | 0.00 | 93 | 1012.6 |
| 20260509113534 | 10 | 17 | 0.0 | 1.6 | 0.00 | 0.00 | 0.00 | 93 | 1012.5 |
| 20260509113032 | 10 | 37 | 0.0 | 1.6 | 0.00 | 0.00 | 0.00 | 93 | 1012.7 |
| 20260509112528 | 10 | 333 | 0.0 | 1.6 | 0.00 | 0.00 | 0.00 | 92 | 1012.5 |
| 20260509112025 | 10 | 163 | 0.0 | 1.6 | 0.00 | 0.00 | 0.00 | 92 | 1012.5 |
| 20260509111522 | 10 | 106 | 0.0 | 1.6 | 0.00 | 0.00 | 0.00 | 93 | 1012.5 |
| 20260509111019 | 10 | 104 | 1.6 | 3.2 | 0.00 | 0.00 | 0.00 | 91 | 1012.3 |
| 20260509110516 | 11 | 93 | 3.2 | 3.2 | 0.00 | 0.00 | 0.00 | 89 | 1012.3 |
| 20260509110013 | 10 | 315 | 1.6 | 1.6 | 0.00 | 0.00 | 0.00 | 85 | 1012.2 |
| 20260509105512 | 10 | 310 | 3.2 | 3.2 | 0.00 | 0.00 | 0.00 | 86 | 1012.2 |
| 20260509105009 | 10 | 331 | 1.6 | 4.8 | 0.00 | 0.00 | 0.00 | 88 | 1012.2 |
| 20260509104506 | 10 | 311 | 1.6 | 1.6 | 0.00 | 0.00 | 0.00 | 91 | 1012.1 |
| 20260509104002 | 10 | 312 | 1.6 | 1.6 | 0.00 | 0.00 | 0.00 | 91 | 1012.1 |
| 20260509103500 | 10 | 291 | 1.6 | 3.2 | 0.00 | 0.00 | 0.00 | 92 | 1012.1 |
| 20260509102958 | 10 | 274 | 0.0 | 1.6 | 0.00 | 0.00 | 0.00 | 92 | 1012.0 |
| 20260509102455 | 10 | 143 | 0.0 | 1.6 | 0.00 | 0.00 | 0.00 | 91 | 1012.1 |
| 20260509101951 | 10 | 35 | 0.0 | 0.0 | 0.00 | 0.00 | 0.00 | 92 | 1011.8 |
| 20260509101448 | 10 | 337 | 0.0 | 0.0 | 0.00 | 0.00 | 0.00 | 92 | 1011.8 |
| 20260509100945 | 10 | 184 | 0.0 | 1.6 | 0.00 | 0.00 | 0.00 | 91 | 1011.8 |
| 20260509100442 | 10 | 39 | 0.0 | 0.0 | 0.00 | 0.00 | 0.00 | 91 | 1011.5 |
| 20260509095939 | 10 | 39 | 0.0 | 0.0 | 0.00 | 0.00 | 0.00 | 90 | 1011.5 |
| 20260509095436 | 10 | 309 | 0.0 | 0.0 | 0.00 | 0.00 | 0.00 | 88 | 1011.6 |
| 20260509094933 | 10 | 309 | 0.0 | 0.0 | 0.00 | 0.00 | 0.00 | 88 | 1011.8 |
| 20260509094429 | 10 | 308 | 0.0 | 0.0 | 0.00 | 0.00 | 0.00 | 90 | 1011.7 |
| 20260509093927 | 9 | 309 | 0.0 | 0.0 | 0.00 | 0.00 | 0.00 | 91 | 1011.5 |
| 20260509093424 | 10 | 308 | 0.0 | 0.0 | 0.00 | 0.00 | 0.00 | 91 | 1011.6 |
| 20260509092923 | 10 | 306 | 0.0 | 0.0 | 0.00 | 0.00 | 0.00 | 91 | 1011.6 |
| 20260509092420 | 10 | 60 | 0.0 | 0.0 | 0.00 | 0.00 | 0.00 | 91 | 1011.5 |
| 20260509091919 | 10 | 60 | 0.0 | 0.0 | 0.00 | 0.00 | 0.00 | 91 | 1011.6 |
| 20260509091415 | 10 | 60 | 0.0 | 0.0 | 0.00 | 0.00 | 0.00 | 91 | 1011.6 |
| 20260509090912 | 10 | 58 | 0.0 | 0.0 | 0.00 | 0.00 | 0.00 | 90 | 1011.5 |
| 20260509090409 | 10 | 58 | 0.0 | 0.0 | 0.00 | 0.00 | 0.00 | 87 | 1011.4 |
| 20260509085907 | 10 | 58 | 0.0 | 0.0 | 0.00 | 0.00 | 0.00 | 89 | 1011.5 |
| 20260509085404 | 10 | 58 | 0.0 | 0.0 | 0.00 | 0.00 | 0.00 | 89 | 1011.5 |
| 20260509084900 | 9 | 58 | 0.0 | 0.0 | 0.00 | 0.00 | 0.00 | 90 | 1011.6 |
| 20260509084357 | 9 | 58 | 0.0 | 0.0 | 0.00 | 0.00 | 0.00 | 90 | 1011.6 |
| 20260509083855 | 9 | 58 | 0.0 | 0.0 | 0.00 | 0.00 | 0.00 | 91 | 1011.6 |
| 20260509083351 | 9 | 60 | 0.0 | 0.0 | 0.00 | 0.00 | 0.00 | 92 | 1011.5 |
| 20260509082848 | 9 | 61 | 0.0 | 0.0 | 0.00 | 0.00 | 0.00 | 91 | 1011.7 |
| 20260509082345 | 9 | 61 | 0.0 | 0.0 | 0.00 | 0.00 | 0.00 | 91 | 1011.7 |
| 20260509081842 | 9 | 59 | 0.0 | 0.0 | 0.00 | 0.00 | 0.00 | 91 | 1011.6 |
| 20260509081339 | 9 | 59 | 0.0 | 0.0 | 0.00 | 0.00 | 0.00 | 91 | 1011.8 |
| 20260509080837 | 9 | 59 | 0.0 | 0.0 | 0.00 | 0.00 | 0.00 | 91 | 1011.6 |
| 20260509080335 | 9 | 59 | 0.0 | 0.0 | 0.00 | 0.00 | 0.00 | 91 | 1011.7 |
| 20260509075833 | 9 | 60 | 0.0 | 0.0 | 0.00 | 0.00 | 0.00 | 92 | 1011.7 |
| 20260509075330 | 9 | 60 | 0.0 | 0.0 | 0.00 | 0.00 | 0.00 | 92 | 1011.8 |
| 20260509074827 | 9 | 60 | 0.0 | 0.0 | 0.00 | 0.00 | 0.00 | 91 | 1011.8 |
| 20260509074324 | 9 | 60 | 0.0 | 0.0 | 0.00 | 0.00 | 0.00 | 90 | 1011.7 |
| 20260509073820 | 9 | 60 | 0.0 | 0.0 | 0.00 | 0.00 | 0.00 | 90 | 1011.6 |
| 20260509073317 | 9 | 60 | 0.0 | 0.0 | 0.00 | 0.00 | 0.00 | 89 | 1011.9 |
| 20260509072814 | 9 | 60 | 0.0 | 0.0 | 0.00 | 0.00 | 0.00 | 88 | 1011.7 |
| 20260509072310 | 9 | 60 | 0.0 | 0.0 | 0.00 | 0.00 | 0.00 | 88 | 1011.7 |
| 20260509071807 | 9 | 61 | 0.0 | 0.0 | 0.00 | 0.00 | 0.00 | 89 | 1011.9 |
| 20260509071304 | 9 | 61 | 0.0 | 0.0 | 0.00 | 0.00 | 0.00 | 90 | 1011.6 |
| 20260509070801 | 9 | 62 | 0.0 | 0.0 | 0.00 | 0.00 | 0.00 | 90 | 1011.8 |
| 20260509070257 | 9 | 62 | 0.0 | 0.0 | 0.00 | 0.00 | 0.00 | 91 | 1011.8 |
| 20260509065754 | 9 | 62 | 0.0 | 0.0 | 0.00 | 0.00 | 0.00 | 92 | 1011.9 |
| 20260509065250 | 9 | 62 | 0.0 | 0.0 | 0.00 | 0.00 | 0.00 | 91 | 1012.0 |
| 20260509064746 | 9 | 63 | 0.0 | 0.0 | 0.00 | 0.00 | 0.00 | 91 | 1011.8 |
| 20260509064244 | 9 | 56 | 0.0 | 0.0 | 0.00 | 0.00 | 0.00 | 90 | 1011.9 |
| 20260509063741 | 9 | 284 | 0.0 | 0.0 | 0.00 | 0.00 | 0.00 | 88 | 1012.1 |
| 20260509063237 | 9 | 284 | 0.0 | 0.0 | 0.00 | 0.00 | 0.00 | 88 | 1011.9 |
| 20260509062735 | 8 | 284 | 0.0 | 0.0 | 0.00 | 0.00 | 0.00 | 88 | 1012.2 |
| 20260509062232 | 8 | 284 | 0.0 | 0.0 | 0.00 | 0.00 | 0.00 | 90 | 1012.1 |
| 20260509061729 | 8 | 284 | 0.0 | 0.0 | 0.00 | 0.00 | 0.00 | 90 | 1012.4 |
| 20260509061227 | 8 | 284 | 0.0 | 0.0 | 0.00 | 0.00 | 0.00 | 90 | 1012.1 |
| 20260509060724 | 8 | 284 | 0.0 | 0.0 | 0.00 | 0.00 | 0.00 | 90 | 1012.1 |
| 20260509060220 | 9 | 284 | 0.0 | 0.0 | 0.00 | 0.00 | 0.00 | 90 | 1012.2 |
| 20260509055716 | 9 | 273 | 0.0 | 0.0 | 0.00 | 0.00 | 0.00 | 90 | 1012.3 |
| 20260509055212 | 9 | 235 | 0.0 | 0.0 | 0.00 | 0.00 | 0.00 | 90 | 1012.2 |
| 20260509054708 | 9 | 235 | 0.0 | 0.0 | 0.00 | 0.00 | 0.00 | 90 | 1012.3 |
| 20260509054206 | 9 | 235 | 0.0 | 0.0 | 0.00 | 0.00 | 0.00 | 91 | 1012.3 |
| 20260509053704 | 10 | 220 | 0.0 | 0.0 | 0.00 | 0.00 | 0.00 | 90 | 1012.4 |
| 20260509053201 | 9 | 218 | 0.0 | 0.0 | 0.00 | 0.00 | 0.00 | 89 | 1012.5 |
| 20260509052659 | 9 | 187 | 0.0 | 0.0 | 0.00 | 0.00 | 0.00 | 89 | 1012.3 |
| 20260509052156 | 10 | 225 | 0.0 | 0.0 | 0.00 | 0.00 | 0.00 | 90 | 1012.3 |
| 20260509051654 | 9 | 330 | 0.0 | 0.0 | 0.00 | 0.00 | 0.00 | 88 | 1012.3 |
| 20260509051151 | 10 | 350 | 0.0 | 0.0 | 0.00 | 0.00 | 0.00 | 88 | 1012.4 |
| 20260509050648 | 9 | 351 | 0.0 | 0.0 | 0.00 | 0.00 | 0.00 | 88 | 1012.5 |
| 20260509050144 | 9 | 351 | 0.0 | 0.0 | 0.00 | 0.00 | 0.00 | 88 | 1012.3 |
| 20260509045642 | 9 | 351 | 0.0 | 0.0 | 0.00 | 0.00 | 0.00 | 88 | 1012.3 |
| 20260509045138 | 9 | 300 | 0.0 | 0.0 | 0.00 | 0.00 | 0.00 | 89 | 1012.1 |
| 20260509044636 | 9 | 253 | 0.0 | 0.0 | 0.00 | 0.00 | 0.00 | 90 | 1012.3 |
| 20260509044133 | 9 | 235 | 0.0 | 0.0 | 0.00 | 0.00 | 0.00 | 90 | 1012.4 |
| 20260509043629 | 9 | 234 | 0.0 | 0.0 | 0.00 | 0.00 | 0.00 | 88 | 1012.4 |
| 20260509043125 | 9 | 234 | 0.0 | 1.6 | 0.00 | 0.00 | 0.00 | 87 | 1012.3 |
| 20260509042622 | 9 | 288 | 0.0 | 0.0 | 0.00 | 0.00 | 0.00 | 88 | 1012.4 |
| 20260509042118 | 9 | 288 | 0.0 | 0.0 | 0.00 | 0.00 | 0.00 | 89 | 1012.2 |
| 20260509041615 | 8 | 241 | 0.0 | 0.0 | 0.00 | 0.00 | 0.00 | 90 | 1012.2 |
| 20260509041112 | 8 | 222 | 0.0 | 0.0 | 0.00 | 0.00 | 0.00 | 88 | 1012.1 |
| 20260509040611 | 9 | 222 | 1.6 | 1.6 | 0.00 | 0.00 | 0.00 | 88 | 1012.3 |
| 20260509040107 | 9 | 351 | 0.0 | 1.6 | 0.00 | 0.00 | 0.00 | 87 | 1012.3 |
| 20260509035604 | 10 | 323 | 1.6 | 1.6 | 0.00 | 0.00 | 0.00 | 86 | 1012.6 |
| 20260509035100 | 9 | 333 | 0.0 | 0.0 | 0.00 | 0.00 | 0.00 | 88 | 1012.5 |
| 20260509034559 | 10 | 333 | 0.0 | 0.0 | 0.00 | 0.00 | 0.00 | 88 | 1012.6 |
| 20260509034055 | 10 | 24 | 0.0 | 0.0 | 0.00 | 0.00 | 0.00 | 88 | 1012.7 |
| 20260509033552 | 10 | 24 | 0.0 | 0.0 | 0.00 | 0.00 | 0.00 | 87 | 1012.8 |
| 20260509033049 | 10 | 24 | 0.0 | 0.0 | 0.00 | 0.00 | 0.00 | 86 | 1012.8 |
| 20260509032547 | 10 | 25 | 0.0 | 1.6 | 0.00 | 0.00 | 0.00 | 85 | 1012.7 |
| 20260509032043 | 11 | 343 | 0.0 | 0.0 | 0.00 | 0.00 | 0.00 | 84 | 1012.7 |
| 20260509031541 | 11 | 345 | 0.0 | 0.0 | 0.00 | 0.00 | 0.00 | 83 | 1012.8 |
| 20260509031038 | 11 | 320 | 0.0 | 1.6 | 0.00 | 0.00 | 0.00 | 84 | 1012.8 |
| 20260509030537 | 11 | 315 | 0.0 | 0.0 | 0.00 | 0.00 | 0.00 | 80 | 1012.7 |
| 20260509030033 | 12 | 310 | 3.2 | 3.2 | 0.00 | 0.00 | 0.00 | 82 | 1012.7 |
| 20260509025529 | 12 | 221 | 0.0 | 0.0 | 0.00 | 0.00 | 0.00 | 80 | 1012.8 |
| 20260509025025 | 12 | 223 | 0.0 | 0.0 | 0.00 | 0.00 | 0.00 | 79 | 1013.0 |
| 20260509024521 | 12 | 223 | 0.0 | 0.0 | 0.00 | 0.00 | 0.00 | 79 | 1012.8 |
| 20260509024017 | 12 | 219 | 0.0 | 0.0 | 0.00 | 0.00 | 0.00 | 77 | 1012.9 |
| 20260509023515 | 13 | 124 | 0.0 | 3.2 | 0.00 | 0.00 | 0.00 | 75 | 1012.9 |
| 20260509023012 | 12 | 190 | 0.0 | 0.0 | 0.00 | 0.00 | 0.00 | 75 | 1012.9 |
| 20260509022508 | 13 | 34 | 0.0 | 0.0 | 0.00 | 0.00 | 0.00 | 74 | 1012.9 |
| 20260509022006 | 13 | 336 | 1.6 | 1.6 | 0.00 | 0.00 | 0.00 | 71 | 1012.8 |
| 20260509021503 | 13 | 313 | 1.6 | 3.2 | 0.00 | 0.00 | 0.00 | 73 | 1012.9 |
| 20260509020959 | 13 | 324 | 1.6 | 3.2 | 0.00 | 0.00 | 0.00 | 71 | 1013.0 |
| 20260509020458 | 13 | 320 | 1.6 | 1.6 | 0.00 | 0.00 | 0.00 | 72 | 1013.0 |
| 20260509015954 | 13 | 333 | 0.0 | 1.6 | 0.00 | 0.00 | 0.00 | 73 | 1013.0 |
| 20260509015453 | 13 | 6 | 1.6 | 1.6 | 0.00 | 0.00 | 0.00 | 72 | 1012.8 |
| 20260509014950 | 13 | 77 | 0.0 | 1.6 | 0.00 | 0.00 | 0.00 | 70 | 1013.0 |
| 20260509014447 | 13 | 359 | 0.0 | 0.0 | 0.00 | 0.00 | 0.00 | 70 | 1012.8 |
| 20260509013943 | 13 | 94 | 0.0 | 3.2 | 0.00 | 0.00 | 0.00 | 73 | 1012.9 |
| 20260509013440 | 13 | 325 | 3.2 | 4.8 | 0.00 | 0.00 | 0.00 | 70 | 1012.9 |
| 20260509012936 | 13 | 120 | 0.0 | 1.6 | 0.00 | 0.00 | 0.00 | 71 | 1012.9 |
| 20260509012432 | 13 | 29 | 0.0 | 1.6 | 0.00 | 0.00 | 0.00 | 71 | 1012.7 |
| 20260509011929 | 13 | 310 | 1.6 | 3.2 | 0.00 | 0.00 | 0.00 | 70 | 1012.7 |
| 20260509011427 | 13 | 305 | 1.6 | 3.2 | 0.00 | 0.00 | 0.00 | 70 | 1012.8 |
| 20260509010925 | 13 | 304 | 1.6 | 1.6 | 0.00 | 0.00 | 0.00 | 71 | 1012.6 |
| 20260509010422 | 13 | 304 | 1.6 | 1.6 | 0.00 | 0.00 | 0.00 | 70 | 1012.7 |
| 20260509005918 | 13 | 315 | 0.0 | 1.6 | 0.00 | 0.00 | 0.00 | 71 | 1012.7 |
| 20260509005417 | 13 | 316 | 1.6 | 3.2 | 0.00 | 0.00 | 0.00 | 72 | 1012.6 |
| 20260509004916 | 13 | 349 | 0.0 | 0.0 | 0.00 | 0.00 | 0.00 | 72 | 1012.6 |
| 20260509004413 | 14 | 53 | 0.0 | 1.6 | 0.00 | 0.00 | 0.00 | 66 | 1012.6 |
| 20260509003911 | 14 | 305 | 1.6 | 3.2 | 0.00 | 0.00 | 0.00 | 66 | 1012.5 |
| 20260509003409 | 14 | 304 | 3.2 | 4.8 | 0.00 | 0.00 | 0.00 | 67 | 1012.6 |
| 20260509002905 | 14 | 336 | 0.0 | 0.0 | 0.00 | 0.00 | 0.00 | 64 | 1012.4 |
| 20260509002403 | 15 | 324 | 0.0 | 0.0 | 0.00 | 0.00 | 0.00 | 64 | 1012.4 |
| 20260509001901 | 15 | 322 | 0.0 | 0.0 | 0.00 | 0.00 | 0.00 | 63 | 1012.3 |
| 20260509001356 | 15 | 311 | 0.0 | 1.6 | 0.00 | 0.00 | 0.00 | 57 | 1012.1 |
| 20260509000854 | 15 | 299 | 3.2 | 4.8 | 0.00 | 0.00 | 0.00 | 58 | 1012.3 |
| 20260509000352 | 16 | 320 | 1.6 | 3.2 | 0.00 | 0.00 | 0.00 | 60 | 1012.2 |
| 20260508235848 | 16 | 314 | 0.0 | 0.0 | 0.00 | 0.00 | 0.00 | 59 | 1012.2 |
| 20260508235345 | 17 | 315 | 1.6 | 1.6 | 0.00 | 0.00 | 0.00 | 55 | 1012.1 |
| 20260508234842 | 17 | 299 | 1.6 | 1.6 | 0.00 | 0.00 | 0.00 | 53 | 1012.1 |
| 20260508234338 | 18 | 284 | 0.0 | 0.0 | 0.00 | 0.00 | 0.00 | 46 | 1012.0 |
| 20260508233837 | 19 | 283 | 0.0 | 0.0 | 0.00 | 0.00 | 0.00 | 43 | 1012.0 |
| 20260508233336 | 19 | 283 | 0.0 | 1.6 | 0.00 | 0.00 | 0.00 | 39 | 1012.1 |
| 20260508232832 | 19 | 301 | 0.0 | 1.6 | 0.00 | 0.00 | 0.00 | 40 | 1012.1 |
| 20260508232329 | 19 | 307 | 1.6 | 1.6 | 0.00 | 0.00 | 0.00 | 39 | 1012.0 |
| 20260508231827 | 20 | 302 | 3.2 | 4.8 | 0.00 | 0.00 | 0.00 | 38 | 1011.9 |
| 20260508231323 | 20 | 312 | 3.2 | 6.4 | 0.00 | 0.00 | 0.00 | 39 | 1011.9 |
| 20260508230820 | 20 | 286 | 0.0 | 1.6 | 0.00 | 0.00 | 0.00 | 39 | 1012.0 |
| 20260508230316 | 20 | 283 | 1.6 | 3.2 | 0.00 | 0.00 | 0.00 | 38 | 1012.0 |
| 20260508225814 | 20 | 276 | 3.2 | 6.4 | 0.00 | 0.00 | 0.00 | 38 | 1011.9 |
| 20260508225310 | 20 | 318 | 4.8 | 6.4 | 0.00 | 0.00 | 0.00 | 38 | 1011.8 |
| 20260508224808 | 20 | 292 | 4.8 | 6.4 | 0.00 | 0.00 | 0.00 | 36 | 1011.9 |
| 20260508224305 | 20 | 291 | 3.2 | 4.8 | 0.00 | 0.00 | 0.00 | 37 | 1011.9 |
| 20260508223803 | 20 | 5 | 4.8 | 6.4 | 0.00 | 0.00 | 0.00 | 37 | 1012.1 |
| 20260508223300 | 20 | 279 | 0.0 | 4.8 | 0.00 | 0.00 | 0.00 | 38 | 1012.1 |
| 20260508222758 | 19 | 297 | 3.2 | 4.8 | 0.00 | 0.00 | 0.00 | 38 | 1012.1 |
| 20260508222255 | 19 | 278 | 3.2 | 6.4 | 0.00 | 0.00 | 0.00 | 39 | 1012.1 |
| 20260508221751 | 19 | 333 | 3.2 | 4.8 | 0.00 | 0.00 | 0.00 | 38 | 1012.2 |
| 20260508221247 | 20 | 288 | 9.7 | 11.3 | 0.00 | 0.00 | 0.00 | 37 | 1012.1 |
| 20260508220743 | 20 | 237 | 3.2 | 9.7 | 0.00 | 0.00 | 0.00 | 36 | 1012.3 |
| 20260508220240 | 20 | 237 | 4.8 | 9.7 | 0.00 | 0.00 | 0.00 | 40 | 1012.0 |
| 20260508215736 | 20 | 234 | 1.6 | 6.4 | 0.00 | 0.00 | 0.00 | 37 | 1012.1 |
| 20260508215233 | 21 | 278 | 1.6 | 4.8 | 0.00 | 0.00 | 0.00 | 33 | 1012.0 |
| 20260508214730 | 21 | 230 | 1.6 | 4.8 | 0.00 | 0.00 | 0.00 | 35 | 1012.2 |
| 20260508214228 | 21 | 208 | 1.6 | 4.8 | 0.00 | 0.00 | 0.00 | 37 | 1012.1 |
| 20260508213724 | 20 | 304 | 1.6 | 3.2 | 0.00 | 0.00 | 0.00 | 37 | 1012.2 |
| 20260508213220 | 20 | 246 | 0.0 | 3.2 | 0.00 | 0.00 | 0.00 | 35 | 1012.2 |
| 20260508212717 | 20 | 236 | 3.2 | 11.3 | 0.00 | 0.00 | 0.00 | 35 | 1012.2 |
| 20260508212213 | 20 | 262 | 1.6 | 4.8 | 0.00 | 0.00 | 0.00 | 36 | 1012.3 |
| 20260508211709 | 20 | 290 | 3.2 | 6.4 | 0.00 | 0.00 | 0.00 | 36 | 1012.5 |
| 20260508211205 | 20 | 280 | 1.6 | 6.4 | 0.00 | 0.00 | 0.00 | 37 | 1012.4 |
| 20260508210703 | 20 | 255 | 0.0 | 6.4 | 0.00 | 0.00 | 0.00 | 37 | 1012.3 |
| 20260508210200 | 19 | 292 | 4.8 | 6.4 | 0.00 | 0.00 | 0.00 | 36 | 1012.4 |
| 20260508205656 | 20 | 299 | 9.7 | 14.5 | 0.00 | 0.00 | 0.00 | 35 | 1012.4 |
| 20260508205153 | 20 | 324 | 3.2 | 4.8 | 0.00 | 0.00 | 0.00 | 35 | 1012.3 |
| 20260508204649 | 20 | 270 | 1.6 | 3.2 | 0.00 | 0.00 | 0.00 | 34 | 1012.3 |
| 20260508204145 | 20 | 310 | 6.4 | 12.9 | 0.00 | 0.00 | 0.00 | 35 | 1012.4 |
| 20260508203642 | 20 | 341 | 9.7 | 12.9 | 0.00 | 0.00 | 0.00 | 36 | 1012.6 |
| 20260508203138 | 20 | 294 | 3.2 | 4.8 | 0.00 | 0.00 | 0.00 | 35 | 1012.6 |
| 20260508202634 | 20 | 314 | 4.8 | 9.7 | 0.00 | 0.00 | 0.00 | 36 | 1012.7 |